UOSAT-12 - Orbit

View from above orbital plane
View from above orbital plane
View from above satellite
View from above satellite

Ground track
Ground track

The orbit data is extracted from the following two-line orbital elements,

1 25693U 99021A   13138.79469348  .00000397  00000-0  71783-4 0  1498
2 25693 064.5585 035.7665 0014587 333.5974 085.2062 14.79498890759565
Epoch (UTC): 18 May 2013 19:04:21
Eccentricity: 0.0014587
inclination: 64.5585°
perigee height: 620 km
apogee height: 641 km
right ascension of ascending node: 35.7665°
argument of perigee: 333.5974°
revolutions per day: 14.79498890
mean anomaly at epoch: 85.2062°
orbit number at epoch: 75956

The dashed part of the orbit path shows where the satellite is in the earth's shadow,  

Developed and maintained by Chris Peat, Heavens-Above GmbH. Please read the updated FAQ before sending e-mail. Imprint. DLR